Weather History for KDDC - April, 2013

Change the Weather History Date:

Monday, April 22, 2013

  Actual Average Record
Temperature  
Mean Temperature 52 °F -  
Max Temperature 75 °F 70 °F 100 °F (1989)
Min Temperature 30 °F 43 °F 26 °F (1892)
Degree Days  
Heating Degree Days 12    
Growing Degree Days 2 (Base 50)    
Moisture  
Dew Point 40 °F    
Average Humidity 69    
Maximum Humidity 87    
Minimum Humidity 31    
Precipitation  
Precipitation 0.01 in - - ()
Sea Level Pressure  
Sea Level Pressure 29.93 in    
Wind  
Wind Speed 19 mph (SE)    
Max Wind Speed 37 mph    
Max Gust Speed 48 mph    
Visibility 9 miles    
Events Rain    
Averages and records for this station are not official NWS values.
T = Trace of Precipitation, MM = Missing Value Source: NWS Daily Summary

Daily Weather History Graph

Daily Weather History Graph

Search for Another Location

Airport or City:

Trip Planner

Search our weather history database for the weather conditions in past years. The results will help you decide how hot, cold, wet, or windy it might be!

Date:

Astronomy

Apr. 22, 2013 Rise Set
Actual Time 6:54 AM CDT 8:22 PM CDT
Civil Twilight 6:27 AM CDT 8:49 PM CDT
Nautical Twilight 5:54 AM CDT 9:23 PM CDT
Astronomical Twilight 5:19 AM CDT 9:58 PM CDT
Moon 5:16 PM CDT (4/22) 4:46 AM CDT (4/22)
Length of Visible Light 14h 22m
Length of Day
13h 27m
Waxing Gibbous, 88% of the Moon is Illuminated
Apr 22
Waxing Gibbous
Apr 25
Full
May 2
Last Quarter
May 9
New
May 17
First Quarter

Hourly Weather History & Observations

Time (CDT) Temp. Windchill Dew Point Humidity Pressure Visibility Wind Dir Wind Speed Gust Speed Precip Events Conditions
12:52 AM 52.0 °F - 45.0 °F 77% 29.98 in 10.0 mi SSE 15.0 mph - N/A   Clear
1:52 AM 54.0 °F - 45.0 °F 72% 29.97 in 10.0 mi South 16.1 mph - N/A   Mostly Cloudy
2:52 AM 52.0 °F - 45.0 °F 77% 29.95 in 10.0 mi South 11.5 mph 18.4 mph N/A   Partly Cloudy
3:52 AM 52.0 °F - 45.0 °F 77% 29.93 in 10.0 mi South 15.0 mph - N/A   Mostly Cloudy
4:52 AM 50.0 °F - 44.1 °F 80% 29.91 in 10.0 mi SSE 15.0 mph - N/A   Clear
5:52 AM 48.0 °F - 44.1 °F 86% 29.90 in 9.0 mi SSE 13.8 mph - N/A   Scattered Clouds
6:52 AM 48.2 °F - 44.6 °F 87% 29.92 in 8.0 mi SSE 16.1 mph - N/A   Scattered Clouds
7:52 AM 48.0 °F - 44.1 °F 86% 29.89 in 6.0 mi SSE 12.7 mph - N/A   Scattered Clouds
8:03 AM 48.2 °F - 44.6 °F 87% 29.92 in 6.0 mi SSE 13.8 mph - N/A   Haze
8:52 AM 51.1 °F - 45.0 °F 80% 29.87 in 8.0 mi South 19.6 mph - N/A   Overcast
9:08 AM 51.8 °F - 44.6 °F 76% 29.89 in 8.0 mi South 16.1 mph - N/A   Overcast
9:45 AM 55.4 °F - 46.4 °F 72% 29.90 in 9.0 mi South 19.6 mph 29.9 mph N/A   Overcast
9:52 AM 55.9 °F - 46.0 °F 69% 29.87 in 10.0 mi South 19.6 mph - N/A   Overcast
10:52 AM 57.9 °F - 46.0 °F 65% 29.84 in 10.0 mi SSW 16.1 mph 26.5 mph N/A   Overcast
11:48 AM 62.6 °F - 46.4 °F 55% 29.86 in 10.0 mi SSW 18.4 mph 25.3 mph N/A   Scattered Clouds
11:52 AM 63.0 °F - 46.0 °F 54% 29.82 in 10.0 mi SSW 16.1 mph 25.3 mph N/A   Partly Cloudy
12:52 PM 68.0 °F - 46.0 °F 45% 29.79 in 10.0 mi SSW 13.8 mph 20.7 mph N/A   Clear
1:52 PM 72.0 °F - 42.1 °F 34% 29.76 in 10.0 mi NW 13.8 mph 19.6 mph N/A   Clear
2:52 PM 75.9 °F - 43.0 °F 31% 29.75 in 10.0 mi North 18.4 mph 25.3 mph N/A   Partly Cloudy
3:52 PM 69.1 °F - 46.0 °F 44% 29.79 in 10.0 mi NNE 24.2 mph 34.5 mph N/A   Partly Cloudy
4:52 PM 59.0 °F - 44.1 °F 58% 29.85 in 8.0 mi North 34.5 mph 44.9 mph N/A   Scattered Clouds
5:25 PM 48.2 °F - 39.2 °F 71% 29.90 in 10.0 mi North 35.7 mph 44.9 mph N/A   Mostly Cloudy
5:52 PM 45.0 °F 35.2 °F 37.0 °F 74% 29.92 in 10.0 mi North 29.9 mph 42.6 mph N/A   Overcast
6:52 PM 37.9 °F 25.1 °F 32.0 °F 79% 29.98 in 10.0 mi North 33.4 mph 48.3 mph N/A   Overcast
7:52 PM 36.0 °F 21.8 °F 28.9 °F 76% 29.99 in 10.0 mi North 36.8 mph 47.2 mph N/A   Overcast
8:52 PM 34.0 °F 19.9 °F 27.0 °F 75% 30.03 in 10.0 mi North 32.2 mph 47.2 mph N/A   Overcast
9:52 PM 33.1 °F 18.4 °F 26.1 °F 75% 30.09 in 10.0 mi NNE 33.4 mph 43.7 mph N/A   Overcast
10:52 PM 30.9 °F 15.9 °F 27.0 °F 85% 30.10 in 10.0 mi North 31.1 mph 40.3 mph 0.00 in   Overcast
11:17 PM 30.2 °F 15.2 °F 26.6 °F 86% 30.10 in 9.0 mi North 29.9 mph 40.3 mph 0.00 in Rain Light Freezing Rain
11:38 PM 30.2 °F 15.7 °F 26.6 °F 86% 30.11 in 9.0 mi North 27.6 mph 43.7 mph 0.00 in   Overcast
11:45 PM 30.2 °F 15.4 °F 26.6 °F 86% 30.10 in 8.0 mi North 28.8 mph 38.0 mph 0.00 in   Overcast
11:52 PM 30.0 °F 15.2 °F 26.1 °F 85% 30.11 in 6.0 mi North 28.8 mph 36.8 mph 0.00 in   Overcast